Stündliche Wetter Abbotsford

Heute, 22 Juni, Dienstag

Zeit Temperatur Niederschläge Wind Luftdruck Luftfeuchtigkeit
00:00 +20°C° 0 mm 1 m/S 749 mmHg 74%
01:00 +19°C° 0 mm 1 m/S 749 mmHg 73%
02:00 +19°C° 0 mm 1 m/S 749 mmHg 73%
03:00 +18°C° 0 mm 1 m/S 749 mmHg 74%
04:00 +18°C° 0 mm 1 m/S 749 mmHg 74%
05:00 +19°C° 0 mm 1 m/S 749 mmHg 71%
06:00 +21°C° 0 mm 1 m/S 749 mmHg 68%
07:00 +22°C° 0 mm 1 m/S 750 mmHg 64%
08:00 +23°C° 0 mm 1 m/S 749 mmHg 60%
09:00 +24°C° 0 mm 2 m/S 749 mmHg 55%
10:00 +26°C° 0 mm 2 m/S 749 mmHg 50%
11:00 +26°C° 0 mm 2 m/S 749 mmHg 49%
12:00 +27°C° 0 mm 2 m/S 749 mmHg 47%
13:00 +28°C° 0 mm 3 m/S 749 mmHg 46%
14:00 +28°C° 0 mm 2 m/S 749 mmHg 46%
15:00 +27°C° 0 mm 2 m/S 749 mmHg 47%
16:00 +27°C° 0 mm 2 m/S 748 mmHg 47%
17:00 +26°C° 0 mm 2 m/S 748 mmHg 54%
18:00 +25°C° 0 mm 1 m/S 748 mmHg 62%
19:00 +23°C° 0 mm 1 m/S 748 mmHg 69%
20:00 +22°C° 0 mm 1 m/S 748 mmHg 73%
21:00 +20°C° 0 mm 1 m/S 748 mmHg 78%
22:00 +18°C° 0 mm 1 m/S 749 mmHg 82%
23:00 +18°C° 0 mm 1 m/S 749 mmHg 82%

Morgen, 23 Juni, Mittwoch

Zeit Temperatur Niederschläge Wind Luftdruck Luftfeuchtigkeit
00:00 +16°C° 0 mm 1 m/S 749 mmHg 83%
01:00 +16°C° 0 mm 1 m/S 749 mmHg 83%
02:00 +15°C° 0 mm 1 m/S 749 mmHg 86%
03:00 +14°C° 0 mm 1 m/S 750 mmHg 88%
04:00 +14°C° 0 mm 1 m/S 750 mmHg 91%
05:00 +15°C° 0 mm 1 m/S 750 mmHg 85%
06:00 +18°C° 0 mm 1 m/S 751 mmHg 79%
07:00 +19°C° 0 mm 1 m/S 751 mmHg 74%
08:00 +20°C° 0 mm 1 m/S 751 mmHg 68%
09:00 +21°C° 0 mm 2 m/S 751 mmHg 62%
10:00 +23°C° 0 mm 2 m/S 751 mmHg 56%
11:00 +24°C° 0 mm 2 m/S 751 mmHg 54%
12:00 +25°C° 0 mm 2 m/S 751 mmHg 51%
13:00 +26°C° 0 mm 2 m/S 751 mmHg 48%
14:00 +26°C° 0 mm 2 m/S 751 mmHg 48%
15:00 +26°C° 0 mm 2 m/S 751 mmHg 49%
16:00 +26°C° 0 mm 2 m/S 751 mmHg 49%
17:00 +24°C° 0 mm 2 m/S 751 mmHg 57%
18:00 +23°C° 0 mm 1 m/S 751 mmHg 64%
19:00 +22°C° 0 mm 1 m/S 751 mmHg 71%
20:00 +20°C° 0 mm 1 m/S 752 mmHg 76%
21:00 +19°C° 0 mm 1 m/S 752 mmHg 80%
22:00 +16°C° 0 mm 1 m/S 752 mmHg 85%
23:00 +16°C° 0 mm 1 m/S 753 mmHg 85%

übermorgen, 24 Juni, Donnerstag

Zeit Temperatur Niederschläge Wind Luftdruck Luftfeuchtigkeit
00:00 +16°C° 0 mm 1 m/S 753 mmHg 85%
01:00 +16°C° 0 mm 1 m/S 753 mmHg 85%
02:00 +15°C° 0 mm 1 m/S 754 mmHg 87%
03:00 +15°C° 0 mm 1 m/S 754 mmHg 89%
04:00 +13°C° 0 mm 0 m/S 754 mmHg 91%
05:00 +16°C° 0 mm 1 m/S 754 mmHg 85%
06:00 +18°C° 0 mm 1 m/S 755 mmHg 79%
07:00 +19°C° 0 mm 1 m/S 755 mmHg 74%
08:00 +21°C° 0 mm 1 m/S 755 mmHg 68%
09:00 +22°C° 0 mm 1 m/S 755 mmHg 63%
10:00 +24°C° 0 mm 1 m/S 755 mmHg 57%
11:00 +25°C° 0 mm 2 m/S 755 mmHg 54%
12:00 +26°C° 0 mm 2 m/S 755 mmHg 51%
13:00 +27°C° 0 mm 2 m/S 755 mmHg 48%
14:00 +27°C° 0 mm 2 m/S 755 mmHg 49%
15:00 +27°C° 0 mm 2 m/S 755 mmHg 50%
16:00 +27°C° 0 mm 2 m/S 755 mmHg 51%
17:00 +26°C° 0 mm 2 m/S 755 mmHg 58%
18:00 +25°C° 0 mm 1 m/S 755 mmHg 65%
19:00 +23°C° 0 mm 1 m/S 755 mmHg 72%
20:00 +22°C° 0 mm 1 m/S 755 mmHg 76%
21:00 +20°C° 0 mm 1 m/S 755 mmHg 80%
22:00 +17°C° 0 mm 0 m/S 755 mmHg 84%
23:00 +17°C° 0 mm 0 m/S 755 mmHg 86%

25 Juni, Freitag

Zeit Temperatur Niederschläge Wind Luftdruck Luftfeuchtigkeit
00:00 +16°C° 0 mm 0 m/S 755 mmHg 87%
01:00 +16°C° 0 mm 0 m/S 755 mmHg 89%
02:00 +16°C° 0 mm 0 m/S 756 mmHg 89%
03:00 +16°C° 0 mm 0 m/S 756 mmHg 90%
04:00 +16°C° 0 mm 0 m/S 756 mmHg 90%
05:00 +18°C° 0 mm 0 m/S 756 mmHg 83%
06:00 +20°C° 0 mm 0 m/S 756 mmHg 76%
07:00 +22°C° 0 mm 0 m/S 756 mmHg 69%
08:00 +25°C° 0 mm 1 m/S 756 mmHg 63%
09:00 +27°C° 0 mm 1 m/S 755 mmHg 57%
10:00 +29°C° 0 mm 1 m/S 755 mmHg 52%
11:00 +30°C° 0 mm 2 m/S 755 mmHg 49%
12:00 +31°C° 0 mm 2 m/S 755 mmHg 47%
13:00 +32°C° 0 mm 2 m/S 754 mmHg 45%
14:00 +32°C° 0 mm 2 m/S 754 mmHg 45%
15:00 +32°C° 0 mm 2 m/S 754 mmHg 46%
16:00 +32°C° 0 mm 2 m/S 753 mmHg 47%
17:00 +30°C° 0 mm 2 m/S 753 mmHg 55%
18:00 +29°C° 0 mm 1 m/S 753 mmHg 64%
19:00 +27°C° 0 mm 1 m/S 753 mmHg 72%
20:00 +26°C° 0 mm 1 m/S 753 mmHg 75%
21:00 +24°C° 0 mm 1 m/S 753 mmHg 78%
22:00 +23°C° 0 mm 1 m/S 753 mmHg 81%
23:00 +23°C° 0 mm 1 m/S 753 mmHg 81%

26 Juni, Samstag

Zeit Temperatur Niederschläge Wind Luftdruck Luftfeuchtigkeit
00:00 +22°C° 0 mm 1 m/S 754 mmHg 82%
01:00 +22°C° 0 mm 1 m/S 754 mmHg 82%
02:00 +22°C° 0 mm 1 m/S 754 mmHg 81%
03:00 +22°C° 0 mm 1 m/S 754 mmHg 81%
04:00 +22°C° 0 mm 1 m/S 754 mmHg 80%
05:00 +22°C° 0 mm 0 m/S 754 mmHg 74%
06:00 +24°C° 0 mm 0 m/S 754 mmHg 67%
07:00 +26°C° 0 mm 0 m/S 754 mmHg 61%
08:00 +30°C° 0 mm 1 m/S 754 mmHg 54%
09:00 +32°C° 0 mm 1 m/S 754 mmHg 48%
10:00 +34°C° 0 mm 1 m/S 753 mmHg 41%
11:00 +35°C° 0 mm 1 m/S 753 mmHg 39%
12:00 +38°C° 0 mm 2 m/S 753 mmHg 37%
13:00 +39°C° 0 mm 2 m/S 752 mmHg 35%
14:00 +39°C° 0 mm 2 m/S 752 mmHg 35%
15:00 +39°C° 0 mm 2 m/S 752 mmHg 36%
16:00 +39°C° 0 mm 2 m/S 751 mmHg 36%
17:00 +36°C° 0 mm 1 m/S 751 mmHg 46%
18:00 +34°C° 0 mm 1 m/S 751 mmHg 55%
19:00 +30°C° 0 mm 0 m/S 751 mmHg 65%
20:00 +28°C° 0 mm 0 m/S 751 mmHg 66%
21:00 +29°C° 0 mm 1 m/S 751 mmHg 67%
22:00 +27°C° 0 mm 1 m/S 751 mmHg 68%
23:00 +27°C° 0 mm 1 m/S 751 mmHg 68%

27 Juni, Sonntag

Zeit Temperatur Niederschläge Wind Luftdruck Luftfeuchtigkeit
00:00 +27°C° 0 mm 1 m/S 751 mmHg 69%
01:00 +26°C° 0 mm 1 m/S 751 mmHg 69%
02:00 +26°C° 0 mm 1 m/S 751 mmHg 69%
03:00 +26°C° 0 mm 1 m/S 751 mmHg 68%
04:00 +26°C° 0 mm 1 m/S 751 mmHg 68%
05:00 +27°C° 0 mm 1 m/S 751 mmHg 64%
06:00 +27°C° 0 mm 0 m/S 751 mmHg 60%
07:00 +29°C° 0 mm 0 m/S 751 mmHg 56%
08:00 +33°C° 0 mm 1 m/S 751 mmHg 51%
09:00 +35°C° 0 mm 1 m/S 751 mmHg 45%
10:00 +37°C° 0 mm 1 m/S 750 mmHg 39%
11:00 +40°C° 0 mm 1 m/S 750 mmHg 36%
12:00 +41°C° 0 mm 2 m/S 750 mmHg 33%
13:00 +42°C° 0 mm 2 m/S 749 mmHg 29%
14:00 +42°C° 0 mm 2 m/S 749 mmHg 29%
15:00 +42°C° 0 mm 2 m/S 749 mmHg 28%
16:00 +43°C° 0 mm 2 m/S 748 mmHg 27%
17:00 +40°C° 0 mm 1 m/S 748 mmHg 36%
18:00 +36°C° 0 mm 1 m/S 748 mmHg 45%
19:00 +34°C° 0 mm 1 m/S 747 mmHg 55%
20:00 +32°C° 0 mm 1 m/S 748 mmHg 56%
21:00 +30°C° 0 mm 1 m/S 748 mmHg 57%
22:00 +29°C° 0 mm 1 m/S 748 mmHg 58%
23:00 +28°C° 0 mm 1 m/S 748 mmHg 58%
Mehr zeigen

Wir brauchen deine Erlaubnis

Meteoprog und unser Service Anbieter werden persönliche Daten aufbewahren, so wie Cookies, Geräte Bezeichnung oder ähnliche Technologien von deinem Gerät und Prozess, so wie Persönliche Daten Inhalte und Werbungen, genauso wie social Media und den Verkehr zu analysieren.

  • Aufbewahrung und/oder Zugang zu deiner Geräte Informationen.

    Cookies, Geräte Bezeichnung oder andere Informationen, können aufbewahrt oder Zugang zu deinem Gerät erhalten, für den Grund, der oben angegeben wird.

  • Personalisierte Werbung und Inhalte, Messungen, Einblick in das Publikum und Produkt Entwicklung.

    Werbungen und Inhalte können personalisiert werden, basierend auf ein Profil. Mehr Daten können besser personalisierte Werbungen und Inhalte hinzufügen. Werbung und Inhalte können gezeigt und gemessen werden. Einblicke über das Publikum, welche die Werbung gesehen haben und den Inhalt, können abgeleitet werden. So wie Daten können genutzt werden, um es zu verbessern oder die Benutzer Erfahrung zu verbessern das System und die Software.

Wenn du “Ich stimme zu” klickst, erlaubst du uns, die Cookies zu benutzen die Geräte Bezeichnung, den Web oder ähnliche Technologien zu benutzen. Deine Settings, können in deinem Gerät bei deinem Browser geändert werden.

Für den bestimmten Zweck, berechtigten Interessen beruhen darauf, mehr als auf den Inhalt. Du kannst mehr darüber in unseren Privaten und Cookie Politik lesen.